TimeMST,TemperatureF,Dew PointF,Humidity,Sea Level PressureIn,VisibilityMPH,Wind Direction,Wind SpeedMPH,Gust SpeedMPH,PrecipitationIn,Events,Conditions,WindDirDegrees,DateUTC
12:56 AM,66.0,48.9,54,29.86,10.0,SSW,17.3,25.3,N/A,,Partly Cloudy,200,2012-10-12 07:56:00
1:56 AM,66.0,43.0,43,29.85,10.0,South,18.4,28.8,N/A,,Clear,190,2012-10-12 08:56:00
2:56 AM,63.0,44.1,50,29.88,10.0,South,12.7,19.6,N/A,,Clear,190,2012-10-12 09:56:00
3:56 AM,62.1,44.1,52,29.89,10.0,SSW,13.8,21.9,N/A,,Clear,210,2012-10-12 10:56:00
4:56 AM,61.0,43.0,52,29.90,10.0,South,15.0,21.9,N/A,,Clear,180,2012-10-12 11:56:00
5:55 AM,62.6,44.6,52,29.91,10.0,South,21.9,28.8,N/A,,Partly Cloudy,180,2012-10-12 12:55:00
6:55 AM,60.8,42.8,52,29.95,10.0,SW,11.5,23.0,N/A,,Partly Cloudy,230,2012-10-12 13:55:00
7:55 AM,57.2,44.6,63,29.99,10.0,NW,9.2,-,N/A,,Partly Cloudy,320,2012-10-12 14:55:00
8:55 AM,62.6,42.8,48,29.99,10.0,Variable,5.8,-,N/A,,Partly Cloudy,0,2012-10-12 15:55:00
9:55 AM,68.0,32.0,26,29.98,10.0,WSW,13.8,-,N/A,,Partly Cloudy,240,2012-10-12 16:55:00
10:55 AM,69.8,23.0,17,29.98,10.0,SW,24.2,31.1,N/A,,Partly Cloudy,220,2012-10-12 17:55:00
11:55 AM,71.6,26.6,19,29.97,10.0,SW,15.0,29.9,N/A,,Partly Cloudy,220,2012-10-12 18:55:00
12:55 PM,73.4,15.8,11,29.95,10.0,SW,19.6,34.5,N/A,,Partly Cloudy,220,2012-10-12 19:55:00
1:55 PM,73.4,19.4,13,29.94,10.0,SW,13.8,26.5,N/A,,Clear,230,2012-10-12 20:55:00
2:55 PM,73.4,19.4,13,29.94,10.0,WSW,20.7,27.6,N/A,,Clear,250,2012-10-12 21:55:00
3:55 PM,71.6,23.0,16,29.95,10.0,WSW,17.3,24.2,N/A,,Partly Cloudy,240,2012-10-12 22:55:00
4:55 PM,69.8,24.8,18,29.96,10.0,West,16.1,-,N/A,,Partly Cloudy,280,2012-10-12 23:55:00
5:55 PM,64.4,26.6,24,29.99,10.0,West,11.5,-,N/A,,Partly Cloudy,280,2012-10-13 00:55:00
6:55 PM,60.8,28.4,29,30.01,10.0,West,10.4,-,N/A,,Clear,260,2012-10-13 01:55:00
7:55 PM,57.2,33.8,41,30.04,10.0,West,11.5,-,N/A,,Clear,280,2012-10-13 02:55:00
8:55 PM,57.2,35.6,44,30.03,10.0,West,11.5,-,N/A,,Clear,280,2012-10-13 03:55:00
9:55 PM,55.4,35.6,47,30.03,10.0,West,5.8,-,N/A,,Clear,260,2012-10-13 04:55:00
10:55 PM,53.6,35.6,51,30.03,10.0,West,10.4,-,N/A,,Clear,270,2012-10-13 05:55:00
11:56 PM,53.1,36.0,52,30.04,10.0,West,11.5,-,N/A,,Clear,260,2012-10-13 06:56:00